CAPE
0 0 0 0 0 0 0 0 0 0 0 0 0 0 0 0 0 0 0 0 0 0 0 0 0 0 0
0 0 0 0 0 0 0 0 0 0 0 0 0 0 0 0 0 0 0 0 0 0 0 0 0 0 0
0 0 0 0 0 0 0 0 0 0 0 0 0 0 0 0 0 0 0 0 0 0 0 0 0 0 0
0 0 0 0 0 0 0 0 0 0 0 0 0 0 0 0 0 0 0 0 0 0 0 0 0 0 0
0 0 0 0 0 0 0 0 0 0 0 0 0 0 0 1 0 0 0 0 0 0 0 0 0 0 1
0 0 0 0 0 0 0 0 0 0 0 0 0 0 0 0 0 0 0 0 0 0 0 0 0 0 0
0 0 0 0 0 0 0 0 0 0 0 0 0 0 0 0 0 0 0 0 0 0 0 0 0 0 0
0 0 0 0 0 0 0 0 0 0 0 0 0 0 0 0 0 0 0 0 0 0 0 0 0 0 0
0 0 0 0 0 0 0 0 0 1 1 0 0 0 0 0 0 0 0 0 0 0 0 0 0 0 0
0 1 0 0 0 0 0 0 0 1 0 0 0 0 0 0 0 0 0 0 0 0 0 0 0 0 0
0 0 0 1 1 0 0 0 0 0 0 0 0 0 0 0 0 0 0 0 0 0 0 0 0 0 0
0 0 0 0 0 0 0 0 0 0 0 0 0 0 0 0 0 0 0 0 0 0 0 0 0 0 0
0 0 0 1 0 0 0 0 0 0 0 0 0 0 0 0 0 0 0 0 0 0 0 0 0 0 0
0 1 2 2 0 0 0 0 0 0 0 0 0 0 0 0 0 0 0 0 0 0 0 0 0 0 0
0 1 2 0 0 1 1 0 0 0 0 0 0 0 0 0 0 0 0 0 0 0 0 0 0 0 0
0 0 0 0 0 0 0 0 0 0 0 0 0 0 0 0 0 0 0 0 0 0 0 0 0 0 0
0 1 1 1 0 0 0 0 0 0 0 0 0 0 0 0 0 0 0 0 0 0 0 0 0 0 0
CIN
0 0 0 0 0 0 0 0 0 0 0 0 0 0 0 0 0 0 0 0 0 0 0 0 0 0 0
0 0 0 0 0 0 0 0 0 0 0 0 0 0 0 0 0 0 0 0 0 0 0 0 0 0 0
0 0 0 0 0 0 0 0 0 0 0 0 0 0 0 0 0 0 0 0 0 0 0 0 0 0 0
0 0 0 0 0 0 0 0 0 0 0 0 0 0 0 0 0 0 0 0 0 0 0 0 0 0 0
0 0 0 0 0 0 0 0 0 0 0 0 0 0 0 0 0 0 0 0 0 0 0 0 0 0 0
0 0 0 0 0 0 0 0 0 0 0 0 0 0 0 0 0 0 0 0 0 0 0 0 0 0 -1
0 0 0 0 0 0 0 0 0 0 0 0 0 0 0 0 0 0 0 0 0 0 0 0 0 0 0
0 0 0 0 0 0 0 0 0 0 0 0 0 0 0 0 0 0 0 0 0 0 0 0 0 0 0
0 0 0 0 0 0 0 0 0 0 0 0 0 0 0 0 0 0 0 0 0 0 0 0 0 0 0
0 0 0 0 0 0 0 0 0 0 0 0 0 0 0 0 0 0 0 0 0 0 0 0 0 0 0
0 0 0 0 0 0 0 0 0 0 0 0 0 0 0 0 0 0 0 0 0 0 0 0 0 0 0
0 0 0 0 0 0 0 0 0 0 0 0 0 0 0 0 0 0 0 0 0 0 0 0 0 0 0
0 0 0 0 0 0 0 0 0 0 0 0 0 0 0 0 0 0 0 0 0 0 0 0 0 0 0
0 0 0 0 0 0 0 0 0 0 0 0 0 0 0 0 0 0 0 0 0 0 0 0 0 0 0
0 0 0 0 0 0 0 0 0 0 0 0 0 0 0 0 0 0 0 0 0 0 0 0 0 0 0
0 0 0 0 0 0 0 0 0 0 0 0 0 0 0 0 0 0 0 0 0 0 0 0 0 0 0
0 0 0 0 0 0 0 0 0 0 0 0 0 0 0 0 0 0 0 0 0 0 0 0 0 0 0
Wind_Speed
26 24 24 23 23 23 22 22 22 21 22 21 17 15 16 17 19 21 24 24 23 23 24 26 27 28 27
29 28 26 25 24 24 23 22 22 22 23 20 17 15 16 18 21 23 25 23 22 23 25 27 28 28 27
30 29 28 27 26 25 24 25 24 23 22 18 17 17 17 18 23 24 21 20 21 24 26 28 28 26 27
27 28 30 28 27 28 28 27 26 23 22 19 19 18 20 22 21 19 19 20 22 24 26 27 27 27 27
27 27 28 29 30 29 30 28 27 24 22 22 22 22 23 21 19 17 18 21 22 25 25 26 28 27 27
28 28 29 30 29 27 28 30 33 25 26 26 22 23 21 19 18 21 19 21 23 23 24 26 27 27 28
30 27 28 27 26 29 29 29 31 27 21 23 21 21 17 17 19 19 21 22 21 21 24 25 25 27 29
26 27 26 24 25 27 26 25 23 20 16 22 19 19 18 19 19 20 20 20 20 22 22 24 26 27 29
26 28 24 23 22 20 18 18 23 21 17 21 20 20 20 20 19 18 19 20 20 20 22 24 26 28 29
21 19 15 14 11 15 17 17 22 23 18 18 19 17 21 19 19 19 20 19 18 20 22 25 26 28 30
16 16 16 15 16 18 18 18 19 21 16 13 17 16 18 20 20 19 18 18 19 21 23 25 27 30 31
17 19 19 17 18 19 18 16 17 18 10 12 15 14 17 20 21 19 18 18 20 22 24 25 28 31 30
18 18 17 15 13 14 13 13 14 15 13 13 13 14 15 20 21 21 23 21 21 23 25 29 31 31 33
14 13 11 10 10 11 12 11 12 14 15 15 14 14 17 18 19 21 21 24 22 25 28 30 30 28 28
14 13 13 12 13 12 12 12 15 14 15 15 16 16 17 16 21 21 22 24 24 26 30 32 31 30 29
15 14 15 14 13 13 13 16 16 14 15 14 16 18 20 20 18 21 23 25 26 29 29 30 32 31 29
17 16 16 15 15 16 16 16 17 16 16 16 17 19 22 24 23 20 25 26 29 30 27 27 31 33 32
Wind_Direction
289 292 288 285 282 281 282 284 288 290 296 299 299 300 305 311 317 321 324 327 329 331 333 333 335 336 337
285 287 288 289 288 284 285 287 289 292 296 298 297 299 305 310 316 319 321 324 326 329 331 332 333 334 335
282 286 286 289 290 290 290 289 290 292 294 294 298 302 306 312 317 319 322 326 327 327 328 330 332 334 335
280 284 285 286 288 289 288 289 290 293 295 294 297 299 305 312 315 318 321 323 323 326 328 330 332 333 334
278 281 282 283 284 287 288 291 293 293 295 296 297 299 303 307 311 312 316 319 322 325 328 331 331 332 334
279 278 279 282 285 287 289 292 294 293 293 293 295 297 299 302 307 312 313 318 322 325 328 330 332 333 333
281 279 282 280 284 286 289 293 295 302 295 295 300 299 300 301 308 311 314 319 324 326 328 331 333 333 333
283 285 285 287 285 288 290 294 301 304 306 302 311 309 308 306 310 314 318 322 325 328 331 333 334 334 334
286 285 287 288 289 292 291 290 293 300 297 304 309 312 314 314 319 323 324 325 328 333 334 335 335 335 335
297 302 295 296 287 286 287 287 295 301 300 301 310 317 317 322 325 328 332 335 336 335 336 336 337 336 335
300 299 303 301 297 295 297 297 299 303 311 310 314 315 320 324 331 333 335 336 336 337 338 339 339 337 336
297 297 299 300 300 303 307 313 315 312 316 319 324 323 322 325 326 336 339 341 340 340 341 342 340 338 338
297 301 302 307 313 318 324 328 329 330 327 326 327 330 330 326 328 331 333 342 342 343 343 340 339 340 340
314 320 325 323 320 322 321 325 325 328 333 332 332 331 329 331 332 331 335 334 344 343 341 340 341 342 342
319 319 317 315 314 318 318 318 312 313 319 327 332 336 335 336 329 331 334 336 341 342 341 340 342 343 344
314 313 310 308 310 313 312 307 308 311 315 321 324 325 328 331 334 331 334 335 338 339 342 342 341 345 347
312 310 308 305 301 301 303 302 305 307 310 315 318 320 319 320 329 336 331 333 336 337 340 342 342 344 346